Flag for U.S.A. Weather past 2 weeks in New York, New York, U.S.A.

Now
82 °F

Clear.


Feels Like: 82 °F
Forecast: 77 / 88 °F
Wind: N/A

Location: New York City - Central Park

Current Time: Aug 4, 2015 at 12:01:23 AM

Latest Report: Aug 3, 2015 at 10:51 PM


Visibility: 10 mi

Pressure: 29.81 "Hg

Humidity: 46%

Dew point: 59 °F

Location of New YorkLocation

Historic Weather in New York — Graph

°F

New York temperature yesterday

Maximum temperature yesterday: 89 °F (at 2:51 PM)
Minimum temperature yesterday: 75 °F (at 5:51 AM)
Average temperature yesterday: 82 °F

Past Weeks' High & Low Weather Summary

 TemperatureHumidityPressure
High95 °F (Jul 28, 2:51 PM)91% (Jul 30, 4:59 PM)30.03 "Hg (Jul 30, 4:59 PM)
Low68 °F (Jul 23, 5:51 AM)26% (Jul 24, 1:51 PM)29.57 "Hg (Jul 21, 5:51 PM)
Average81 °F52%29.87 "Hg
* Reported Jul 19 9:51 PM — Aug 3 9:51 PM, New York, Weather by CustomWeather, © 2015

Note: Actual official high and low records may vary slightly from our data, if they occured in-between our weather recording intervals... More about our weather records

Advertising

New York weather history for previous 24 hours

 ConditionsComfort  
Time TempWeatherWind HumidityBarometerVisibility
9:51 PM
Mon, Aug 3
84 °FClear.6 mph40%29.80 "Hg10 mi
8:51 PM85 °FSunny.3 mph39%29.78 "Hg10 mi
7:51 PM86 °FSunny.N/A40%29.77 "Hg10 mi
6:51 PM86 °FPassing clouds.7 mph40%29.77 "Hg10 mi
5:51 PM86 °FPassing clouds.8 mph43%29.77 "Hg10 mi
4:51 PM87 °FPassing clouds.7 mph42%29.77 "Hg10 mi
3:51 PM87 °FScattered clouds.8 mph42%29.78 "Hg10 mi
2:51 PM89 °FSunny.9 mph38%29.78 "Hg10 mi
1:51 PM87 °FScattered clouds.N/A43%29.79 "Hg10 mi
12:51 PM88 °FSunny.8 mph43%29.81 "Hg10 mi
11:51 AM86 °FScattered clouds.6 mph45%29.83 "Hg10 mi
10:51 AM83 °FSunny.8 mph50%29.84 "Hg10 mi
9:51 AM80 °FSunny.3 mph52%29.84 "Hg10 mi
8:51 AM78 °FSunny.No wind56%29.84 "Hg10 mi
7:51 AM77 °FSunny.No wind60%29.85 "Hg10 mi
6:51 AM75 °FClear.3 mph62%29.84 "Hg10 mi
5:51 AM75 °FPassing clouds.3 mph60%29.84 "Hg10 mi
4:51 AM76 °FClear.5 mph56%29.84 "Hg10 mi
3:51 AM77 °FClear.3 mph52%29.84 "Hg10 mi
2:51 AM77 °FClear.6 mph50%29.84 "Hg10 mi
1:51 AM78 °FClear.5 mph48%29.85 "Hg10 mi
12:51 AM79 °FClear.5 mph44%29.86 "Hg10 mi
Weather by CustomWeather, © 2015

See weather overviewHow to use our weather pages